Flag for U.S.A. Weather past 2 weeks in Neenah, Wisconsin, U.S.A.

Now
43 °F

Passing clouds.


Feels Like: 41 °F
Forecast: 41 / 69 °F
Wind: 3 mph from North

Location: Appleton / Outagamie

Current Time: Jun 2, 2015 at 6:51:17 AM

Latest Report: Jun 2, 2015 at 5:45 AM


Visibility: 10 mi

Pressure: 30.20 "Hg

Humidity: 76%

Dew point: 36 °F

Location of NeenahLocation

Historic Weather in Neenah — Graph

°F

Neenah temperature yesterday

Maximum temperature yesterday: 64 °F (at 4:45 PM)
Minimum temperature yesterday: 43 °F (at 4:35 AM)
Average temperature yesterday: 51 °F

Past Weeks' High & Low Weather Summary

 TemperatureHumidityPressure
High81 °F (May 28, 12:45 PM)100% (May 24, 5:45 PM)30.34 "Hg (May 24, 5:45 PM)
Low34 °F (May 20, 4:55 AM)23% (May 21, 3:45 PM)29.63 "Hg (May 26, 7:45 PM)
Average56 °F68%30.08 "Hg
* Reported May 18 5:15 AM — Jun 2 5:45 AM, Neenah, Weather by CustomWeather, © 2015

Note: Actual official high and low records may vary slightly from our data, if they occured in-between our weather recording intervals... More about our weather records

Advertising

Neenah weather history for previous 24 hours

 ConditionsComfort  
Time TempWeatherWind HumidityBarometerVisibility
5:45 AM
Tue, Jun 2
43 °FPassing clouds.3 mph76%30.20 "Hg10 mi
5:15 AM46 °FClear.No wind66%30.21 "Hg10 mi
4:55 AM46 °FClear.No wind66%30.21 "Hg10 mi
4:35 AM46 °FClear.No wind66%30.20 "Hg10 mi
4:15 AM46 °FClear.No wind62%30.19 "Hg10 mi
3:55 AM46 °FClear.No wind62%30.19 "Hg10 mi
3:15 AM45 °FClear.No wind66%30.20 "Hg10 mi
2:55 AM46 °FClear.No wind62%30.20 "Hg10 mi
2:35 AM46 °FClear.No wind62%30.20 "Hg10 mi
2:15 AM46 °FClear.No wind62%30.20 "Hg10 mi
1:55 AM50 °FClear.3 mph50%30.20 "Hg10 mi
1:35 AM50 °FClear.No wind50%30.20 "Hg10 mi
1:15 AM50 °FClear.No wind50%30.20 "Hg10 mi
12:55 AM50 °FClear.3 mph50%30.21 "Hg10 mi
12:15 AM50 °FClear.5 mph54%30.22 "Hg10 mi
11:55 PM
Mon, Jun 1
52 °FClear.3 mph54%30.22 "Hg10 mi
11:15 PM52 °FClear.3 mph58%30.22 "Hg10 mi
9:45 PM55 °FClear.No wind44%30.23 "Hg10 mi
8:45 PM57 °FSunny.5 mph39%30.22 "Hg10 mi
7:45 PM61 °FSunny.6 mph31%30.22 "Hg10 mi
5:45 PM64 °FPassing clouds.7 mph30%30.23 "Hg10 mi
4:45 PM64 °FPassing clouds.12 mph30%30.24 "Hg10 mi
3:45 PM63 °FPassing clouds.9 mph30%30.26 "Hg10 mi
2:45 PM63 °FPassing clouds.1 mph30%30.27 "Hg10 mi
1:45 PM63 °FSunny.9 mph32%30.29 "Hg10 mi
12:45 PM61 °FSunny.7 mph36%30.30 "Hg10 mi
11:45 AM57 °FSunny.6 mph48%30.32 "Hg10 mi
10:45 AM55 °FSunny.6 mph47%30.32 "Hg10 mi
9:45 AM54 °FPassing clouds.6 mph51%30.34 "Hg10 mi
8:45 AM52 °FPassing clouds.7 mph62%30.33 "Hg10 mi
7:45 AM46 °FPassing clouds.5 mph71%30.33 "Hg10 mi
6:45 AM45 °FScattered clouds.6 mph71%30.33 "Hg10 mi
Weather by CustomWeather, © 2015

See weather overviewHow to use our weather pages